Baton Rouge, LA

4:21 AM CDT on October 15, 2019 (GMT -0500)
Baton Rouge Metro-Ryan

Weather History for KBTR - August, 2019

Change the Weather History Date:

Friday, August 16, 2019

  Actual Average Record
Temperature  
Mean Temperature 87 °F 83 °F  
Max Temperature 97 °F 93 °F 99 °F (1943)
Min Temperature 76 °F 74 °F 60 °F (2004)
Degree Days  
Heating Degree Days 0 0  
Month to date heating degree days 0 0  
Since 1 June heating degree days 0 0  
Since 1 July heating degree days 0 0  
Cooling Degree Days 22 18  
Month to date cooling degree days 331 288  
Year to date cooling degree days 2065 1893  
Since 1 June cooling degree days 1394 1328  
Growing Degree Days 36 (Base 50)    
Moisture  
Dew Point 73 °F    
Average Humidity 69    
Maximum Humidity 94    
Minimum Humidity 43    
Precipitation  
Precipitation 0.00 in 0.19 in 2.00 in (1922)
Month to date precipitation 2.56 3.09  
Year to date precipitation 43.98 38.98  
Snow  
Snow 0.00 in - - ()
Month to date snowfall 0.0  
Since 1 June snowfall 0.0  
Since 1 July snowfall 0.0  
Snow Depth 0.00 in    
Sea Level Pressure  
Sea Level Pressure 29.95 in    
Wind  
Wind Speed 3 mph (NE)    
Max Wind Speed 10 mph    
Max Gust Speed 15 mph    
Visibility 10 miles    
Events      
T = Trace of Precipitation, MM = Missing Value Source: NWS Daily Summary

Daily Weather History Graph

Daily Weather History Graph

Search for Another Location

Airport or City:

Astronomy

Aug. 16, 2019 Rise Set
Actual Time 6:31 AM CDT 7:45 PM CDT
Civil Twilight 6:06 AM CDT 8:10 PM CDT
Nautical Twilight 5:36 AM CDT 8:40 PM CDT
Astronomical Twilight 5:05 AM CDT 9:11 PM CDT
Moon 8:47 PM CDT (8/16) 7:23 AM CDT (8/16)
Length of Visible Light 14h 04m
Length of Day
13h 13m
Full, 99% of the Moon is Illuminated
Aug 16
Full
Aug 23
Last Quarter
Aug 30
New
Sep 5
First Quarter
Sep 13
Full

Hourly Weather History & Observations

Time (CDT) Temp. Heat Index Dew Point Humidity Pressure Visibility Wind Dir Wind Speed Gust Speed Precip Events Conditions
12:53 AM 78.1 °F - 75.0 °F 90% 29.94 in 10.0 mi Calm Calm - 0.00 in   Clear
1:53 AM 78.1 °F - 75.0 °F 90% 29.93 in 9.0 mi Calm Calm - N/A   Clear
2:53 AM 78.1 °F - 75.0 °F 90% 29.94 in 9.0 mi NNW 4.6 mph - N/A   Clear
3:53 AM 77.0 °F - 75.0 °F 94% 29.94 in 8.0 mi Calm Calm - N/A   Clear
4:53 AM 77.0 °F - 73.9 °F 90% 29.94 in 10.0 mi Calm Calm - N/A   Clear
5:53 AM 75.9 °F - 73.0 °F 91% 29.96 in 10.0 mi Calm Calm - N/A   Clear
6:53 AM 75.9 °F - 73.0 °F 91% 29.97 in 7.0 mi Calm Calm - N/A   Scattered Clouds
7:53 AM 79.0 °F - 73.9 °F 84% 29.98 in 10.0 mi NE 4.6 mph - N/A   Scattered Clouds
8:53 AM 84.0 °F 90.2 °F 73.0 °F 69% 29.98 in 10.0 mi Calm Calm - N/A   Clear
9:53 AM 87.1 °F 95.4 °F 73.9 °F 65% 29.99 in 10.0 mi East 3.5 mph - N/A   Clear
10:53 AM 90.0 °F 97.9 °F 73.0 °F 57% 30.00 in 10.0 mi Variable 3.5 mph - N/A   Clear
11:53 AM 93.0 °F 101.9 °F 73.0 °F 52% 29.98 in 10.0 mi ENE 5.8 mph - N/A   Partly Cloudy
12:53 PM 93.0 °F 100.1 °F 71.1 °F 49% 29.97 in 10.0 mi South 4.6 mph - N/A   Scattered Clouds
1:53 PM 95.0 °F 104.5 °F 73.0 °F 49% 29.95 in 10.0 mi NW 4.6 mph - N/A   Clear
2:53 PM 96.1 °F 104.9 °F 72.0 °F 46% 29.94 in 10.0 mi NE 6.9 mph - N/A   Scattered Clouds
3:53 PM 96.1 °F 103.5 °F 71.1 °F 44% 29.91 in 10.0 mi NE 8.1 mph - N/A   Clear
4:53 PM 95.0 °F 101.3 °F 70.0 °F 44% 29.90 in 10.0 mi NE 3.5 mph - N/A   Clear
5:53 PM 95.0 °F 100.7 °F 69.1 °F 43% 29.90 in 10.0 mi NNE 6.9 mph - N/A   Clear
7:53 PM 87.1 °F 94.5 °F 73.0 °F 63% 29.91 in 10.0 mi NE 3.5 mph - N/A   Clear
8:53 PM 84.0 °F 91.2 °F 73.9 °F 72% 29.92 in 10.0 mi Calm Calm - N/A   Clear
9:53 PM 82.0 °F 87.9 °F 73.9 °F 76% 29.95 in 10.0 mi Calm Calm - N/A   Clear
10:53 PM 82.9 °F 88.0 °F 72.0 °F 69% 29.94 in 10.0 mi SSE 3.5 mph - N/A   Clear
11:53 PM 79.0 °F - 73.0 °F 82% 29.95 in 10.0 mi Calm Calm - N/A   Clear